Temp
-12 -12 -12 -12 -13 -12 -12 -12 -12 -12 -12 -12 -12 -12 -12 -12 -12 -12 -12 -12 -12 -12 -12 -12 -12 -12 -12 -12 -12 -12 -12 -12 -12 -12 -12 -12 -12 -12 -12 -12 -12 -12 -12 -12 -12 -12 -12 -12 -12 -12 -13 -13 -13 -13 -13 -13 -13 -13 -13 -13 -13 -13 -13
-12 -12 -12 -13 -13 -13 -13 -13 -13 -13 -13 -13 -13 -13 -13 -13 -12 -12 -12 -12 -12 -12 -12 -12 -12 -12 -12 -12 -12 -12 -12 -12 -12 -12 -12 -12 -12 -12 -12 -12 -12 -12 -12 -13 -13 -13 -13 -13 -13 -13 -13 -13 -13 -13 -13 -13 -13 -13 -13 -13 -13 -13 -13
-12 -12 -12 -12 -13 -13 -13 -13 -13 -14 -14 -14 -13 -13 -13 -13 -13 -12 -13 -12 -12 -12 -12 -12 -12 -12 -12 -12 -12 -12 -12 -12 -12 -12 -12 -12 -12 -12 -12 -12 -12 -12 -12 -13 -13 -13 -13 -13 -13 -13 -13 -13 -13 -13 -13 -13 -13 -13 -13 -13 -13 -13 -13
-13 -13 -13 -13 -13 -13 -13 -13 -14 -14 -14 -14 -14 -13 -13 -13 -13 -13 -13 -13 -12 -12 -12 -12 -12 -12 -12 -12 -12 -12 -12 -12 -12 -12 -12 -12 -12 -12 -12 -12 -12 -12 -12 -13 -13 -13 -13 -13 -13 -13 -13 -13 -13 -13 -13 -13 -13 -13 -13 -13 -13 -13 -13
-13 -13 -13 -13 -13 -13 -13 -14 -14 -14 -14 -14 -14 -14 -13 -13 -13 -13 -13 -13 -13 -12 -12 -13 -12 -12 -12 -12 -12 -12 -12 -12 -12 -12 -12 -12 -12 -12 -12 -12 -12 -13 -13 -13 -13 -13 -13 -13 -13 -13 -13 -13 -13 -13 -13 -13 -13 -13 -13 -13 -13 -13 -13
-14 -14 -13 -13 -13 -13 -14 -14 -14 -14 -14 -14 -14 -14 -14 -13 -13 -13 -13 -12 -13 -13 -13 -13 -13 -12 -12 -12 -12 -12 -12 -12 -12 -12 -12 -12 -12 -13 -13 -13 -12 -13 -13 -13 -13 -13 -13 -13 -13 -13 -13 -13 -13 -13 -13 -13 -13 -13 -13 -13 -13 -13 -13
-14 -14 -13 -13 -13 -14 -14 -14 -14 -14 -14 -14 -14 -14 -14 -14 -13 -13 -13 -12 -13 -13 -13 -13 -13 -13 -13 -12 -12 -12 -12 -12 -12 -13 -13 -12 -13 -13 -13 -13 -13 -13 -13 -13 -13 -13 -13 -13 -13 -13 -13 -13 -13 -13 -13 -13 -13 -13 -13 -13 -13 -13 -13
-14 -14 -14 -14 -14 -14 -14 -14 -14 -14 -14 -14 -14 -14 -14 -14 -14 -13 -13 -13 -13 -13 -13 -13 -13 -13 -13 -13 -13 -13 -12 -12 -12 -13 -13 -13 -13 -13 -13 -13 -13 -13 -13 -13 -13 -13 -13 -13 -13 -13 -13 -13 -13 -13 -13 -13 -13 -13 -13 -13 -13 -13 -13
-14 -14 -14 -14 -14 -14 -14 -14 -14 -14 -14 -14 -13 -14 -14 -14 -13 -13 -13 -13 -13 -13 -13 -13 -13 -13 -13 -13 -13 -13 -12 -12 -12 -12 -12 -13 -13 -13 -13 -13 -13 -13 -13 -13 -13 -13 -13 -13 -13 -13 -13 -13 -13 -13 -13 -13 -13 -13 -13 -13 -13 -13 -13
-14 -14 -14 -14 -14 -14 -14 -14 -14 -14 -14 -13 -13 -13 -13 -13 -13 -13 -13 -13 -13 -13 -13 -13 -13 -13 -13 -13 -13 -13 -13 -12 -12 -12 -13 -13 -13 -13 -13 -13 -13 -13 -13 -13 -13 -13 -13 -14 -14 -13 -13 -13 -13 -13 -13 -13 -13 -13 -13 -13 -13 -13 -13
-14 -14 -14 -14 -14 -14 -14 -14 -14 -14 -14 -13 -13 -13 -13 -13 -13 -13 -13 -13 -13 -13 -13 -13 -13 -13 -13 -13 -13 -13 -13 -13 -13 -13 -13 -13 -13 -13 -13 -13 -13 -13 -13 -13 -13 -13 -14 -14 -14 -13 -13 -13 -13 -13 -13 -13 -13 -14 -14 -14 -13 -13 -13
-15 -15 -15 -14 -14 -14 -14 -14 -14 -13 -13 -13 -13 -13 -13 -13 -12 -12 -12 -13 -13 -13 -13 -13 -13 -13 -13 -13 -13 -13 -13 -13 -13 -13 -13 -13 -13 -13 -13 -13 -14 -13 -13 -13 -13 -14 -14 -14 -13 -13 -13 -14 -14 -14 -14 -13 -14 -14 -14 -14 -14 -13 -13
-15 -15 -15 -15 -14 -14 -14 -14 -14 -13 -13 -13 -13 -13 -13 -12 -12 -12 -12 -12 -13 -13 -13 -13 -13 -13 -13 -13 -13 -13 -13 -13 -13 -13 -13 -13 -13 -13 -13 -13 -13 -13 -13 -13 -13 -14 -14 -14 -13 -13 -14 -14 -14 -14 -14 -14 -14 -14 -14 -14 -14 -14 -14
-15 -15 -15 -15 -14 -13 -13 -13 -13 -13 -13 -13 -13 -13 -13 -12 -12 -12 -12 -12 -12 -12 -13 -12 -12 -13 -13 -13 -13 -13 -13 -13 -13 -13 -13 -13 -13 -13 -13 -13 -13 -13 -13 -13 -14 -14 -14 -14 -13 -13 -14 -14 -14 -14 -14 -14 -14 -14 -14 -14 -14 -14 -14
-15 -15 -15 -15 -14 -13 -13 -13 -13 -13 -13 -13 -13 -13 -12 -12 -12 -12 -12 -12 -12 -12 -12 -12 -12 -12 -13 -13 -13 -13 -13 -13 -13 -13 -13 -13 -14 -14 -14 -13 -13 -13 -13 -13 -14 -14 -14 -14 -14 -14 -14 -14 -14 -14 -14 -14 -14 -14 -14 -14 -14 -14 -14
-15 -15 -15 -15 -14 -14 -13 -13 -13 -13 -13 -13 -13 -12 -12 -12 -12 -12 -12 -12 -12 -12 -12 -12 -12 -13 -13 -13 -13 -13 -13 -13 -13 -13 -13 -14 -14 -13 -13 -13 -13 -13 -13 -14 -14 -14 -14 -14 -14 -14 -14 -14 -14 -14 -14 -14 -14 -14 -14 -14 -14 -14 -14
-15 -15 -15 -15 -14 -14 -14 -14 -13 -13 -13 -13 -13 -12 -12 -12 -11 -11 -12 -12 -12 -12 -12 -12 -12 -13 -13 -13 -13 -13 -13 -13 -14 -14 -14 -14 -14 -14 -14 -14 -14 -14 -13 -14 -14 -14 -14 -14 -14 -14 -14 -14 -14 -14 -14 -14 -14 -14 -14 -14 -14 -14 -14
-14 -14 -15 -15 -15 -14 -14 -14 -13 -13 -13 -13 -13 -13 -12 -12 -12 -12 -12 -12 -12 -12 -12 -12 -13 -13 -13 -13 -13 -13 -13 -14 -14 -14 -14 -14 -14 -14 -14 -14 -14 -14 -14 -14 -14 -14 -14 -14 -14 -14 -14 -14 -14 -14 -14 -14 -14 -14 -14 -14 -14 -14 -14
-14 -14 -14 -15 -15 -15 -14 -14 -13 -13 -13 -13 -13 -13 -13 -12 -13 -13 -13 -13 -13 -13 -13 -13 -13 -13 -13 -13 -13 -13 -13 -13 -14 -14 -14 -14 -14 -13 -13 -14 -14 -14 -14 -14 -14 -14 -14 -14 -14 -14 -14 -14 -14 -14 -14 -14 -14 -14 -14 -14 -14 -14 -14
-14 -14 -14 -14 -15 -15 -14 -14 -14 -14 -13 -13 -13 -13 -13 -13 -13 -14 -14 -14 -13 -13 -14 -14 -13 -13 -13 -13 -13 -13 -13 -14 -14 -14 -14 -14 -14 -14 -13 -14 -14 -13 -14 -14 -14 -14 -14 -14 -14 -14 -14 -14 -14 -14 -15 -15 -15 -15 -15 -15 -14 -14 -14
-14 -14 -14 -14 -14 -14 -14 -14 -14 -14 -14 -13 -13 -13 -14 -14 -14 -14 -14 -14 -14 -14 -14 -14 -14 -13 -13 -13 -13 -13 -13 -14 -14 -14 -14 -14 -14 -14 -14 -14 -14 -14 -14 -14 -14 -14 -14 -14 -14 -14 -14 -14 -15 -15 -15 -15 -15 -15 -15 -15 -15 -14 -14
-14 -14 -14 -14 -14 -14 -14 -14 -14 -14 -14 -14 -14 -14 -14 -14 -14 -14 -13 -13 -14 -14 -14 -14 -14 -14 -14 -14 -13 -13 -13 -14 -14 -14 -14 -14 -14 -14 -14 -14 -14 -14 -14 -14 -14 -14 -14 -14 -15 -15 -15 -15 -15 -15 -15 -15 -15 -15 -15 -15 -15 -15 -15
-14 -14 -14 -14 -14 -14 -14 -14 -14 -14 -14 -14 -14 -14 -14 -14 -14 -14 -13 -14 -14 -14 -14 -14 -14 -14 -14 -14 -14 -14 -14 -14 -14 -14 -14 -14 -14 -14 -14 -14 -14 -14 -14 -15 -15 -15 -15 -15 -15 -15 -15 -15 -15 -15 -15 -15 -15 -15 -15 -15 -15 -15 -15
-14 -14 -14 -14 -14 -14 -14 -14 -14 -14 -14 -14 -14 -14 -14 -14 -14 -14 -14 -14 -14 -14 -14 -14 -14 -14 -14 -14 -14 -14 -14 -14 -14 -14 -14 -14 -14 -14 -14 -14 -14 -14 -14 -15 -15 -15 -15 -15 -15 -15 -15 -15 -15 -15 -15 -15 -15 -15 -15 -15 -15 -15 -15
-14 -14 -14 -14 -14 -14 -14 -14 -14 -14 -14 -14 -14 -13 -14 -14 -14 -14 -14 -14 -14 -14 -14 -14 -14 -14 -14 -14 -14 -14 -14 -14 -14 -14 -14 -14 -14 -14 -14 -14 -14 -14 -14 -14 -14 -15 -15 -15 -15 -15 -15 -15 -15 -15 -15 -15 -15 -15 -15 -15 -16 -16 -15
-15 -14 -14 -14 -14 -14 -14 -14 -14 -14 -14 -14 -14 -14 -14 -14 -14 -14 -14 -14 -14 -14 -14 -15 -14 -14 -14 -14 -14 -14 -14 -14 -14 -14 -14 -14 -14 -14 -14 -14 -14 -14 -14 -14 -14 -14 -15 -15 -15 -15 -15 -15 -15 -15 -15 -15 -15 -15 -15 -15 -16 -16 -16
-15 -15 -15 -15 -15 -15 -15 -14 -14 -14 -14 -14 -14 -14 -14 -14 -14 -14 -14 -14 -14 -14 -14 -14 -14 -14 -14 -14 -14 -14 -14 -14 -14 -14 -14 -14 -14 -14 -14 -14 -14 -14 -14 -14 -14 -14 -15 -15 -15 -15 -15 -15 -15 -15 -15 -15 -15 -15 -15 -16 -16 -16 -16
-15 -15 -15 -15 -15 -15 -15 -15 -14 -14 -14 -14 -14 -14 -14 -14 -14 -14 -14 -14 -14 -14 -14 -14 -14 -14 -14 -14 -14 -14 -14 -14 -14 -14 -14 -15 -14 -14 -14 -15 -14 -14 -14 -14 -14 -15 -15 -15 -15 -15 -15 -15 -15 -15 -15 -16 -16 -16 -16 -16 -16 -16 -16
-15 -15 -15 -15 -15 -15 -15 -15 -15 -15 -15 -14 -14 -14 -14 -14 -14 -14 -14 -14 -14 -14 -14 -14 -14 -14 -14 -14 -14 -14 -14 -14 -14 -14 -14 -14 -14 -14 -14 -15 -15 -15 -15 -14 -14 -15 -15 -15 -15 -15 -15 -15 -16 -16 -16 -16 -16 -16 -16 -16 -16 -16 -16
-15 -15 -15 -15 -15 -15 -15 -15 -15 -15 -15 -15 -15 -14 -14 -14 -14 -14 -14 -14 -14 -14 -14 -14 -14 -14 -14 -14 -14 -14 -14 -15 -14 -14 -14 -15 -15 -15 -14 -14 -15 -15 -15 -14 -15 -15 -15 -15 -15 -16 -16 -16 -16 -16 -16 -16 -16 -16 -16 -16 -16 -16 -16
-15 -15 -15 -15 -15 -15 -15 -15 -15 -15 -15 -15 -15 -15 -15 -15 -14 -14 -14 -14 -14 -14 -14 -15 -14 -14 -14 -14 -14 -14 -14 -15 -14 -14 -15 -15 -15 -15 -15 -15 -15 -15 -15 -15 -15 -15 -15 -16 -16 -16 -16 -16 -16 -16 -16 -16 -16 -16 -16 -16 -16 -16 -16
-16 -15 -15 -15 -15 -15 -15 -15 -15 -16 -15 -15 -15 -15 -15 -15 -15 -15 -15 -14 -14 -14 -15 -15 -15 -15 -14 -14 -14 -14 -14 -15 -14 -14 -15 -15 -15 -15 -15 -15 -15 -15 -15 -15 -16 -16 -16 -16 -16 -16 -16 -17 -17 -16 -16 -17 -17 -16 -16 -17 -17 -17 -17
-16 -16 -16 -15 -15 -15 -15 -15 -15 -16 -16 -16 -15 -15 -15 -15 -15 -15 -15 -15 -15 -15 -15 -15 -15 -15 -15 -15 -15 -14 -14 -15 -15 -14 -15 -15 -15 -16 -16 -16 -16 -16 -16 -16 -16 -16 -16 -16 -16 -16 -17 -17 -17 -17 -17 -17 -17 -17 -17 -17 -17 -17 -17
-16 -16 -16 -16 -15 -15 -15 -15 -15 -16 -16 -16 -16 -15 -15 -15 -15 -15 -15 -15 -15 -15 -15 -15 -15 -15 -15 -15 -15 -14 -15 -15 -15 -15 -15 -16 -16 -16 -16 -16 -17 -17 -16 -16 -16 -16 -17 -17 -17 -17 -17 -17 -17 -17 -17 -17 -17 -17 -18 -18 -18 -17 -17
-16 -16 -16 -16 -16 -16 -15 -15 -15 -16 -16 -16 -16 -16 -15 -15 -15 -16 -16 -16 -16 -16 -16 -16 -16 -15 -15 -15 -15 -15 -15 -15 -15 -15 -16 -16 -16 -16 -16 -16 -17 -17 -17 -17 -17 -17 -17 -17 -17 -17 -17 -17 -17 -17 -17 -17 -17 -18 -18 -18 -17 -17 -17
-16 -16 -16 -16 -16 -16 -16 -16 -16 -16 -16 -16 -16 -16 -16 -16 -16 -16 -16 -16 -16 -16 -16 -16 -16 -16 -16 -16 -15 -15 -15 -15 -15 -15 -16 -16 -16 -16 -16 -17 -17 -17 -17 -17 -17 -17 -17 -17 -17 -17 -17 -17 -17 -17 -17 -17 -17 -18 -18 -17 -17 -17 -17
-16 -16 -16 -16 -16 -16 -16 -16 -16 -16 -16 -16 -16 -16 -16 -16 -16 -16 -16 -16 -16 -16 -16 -16 -16 -16 -16 -16 -16 -16 -16 -16 -16 -16 -16 -16 -16 -16 -16 -17 -17 -17 -17 -17 -17 -17 -17 -17 -17 -17 -17 -17 -17 -17 -17 -17 -17 -17 -17 -18 -18 -18 -17
Height
5797 5796 5794 5793 5793 5792 5791 5789 5788 5788 5788 5788 5788 5788 5787 5786 5785 5783 5783 5783 5783 5783 5784 5784 5785 5785 5787 5788 5789 5791 5792 5793 5794 5795 5796 5797 5797 5798 5799 5799 5799 5800 5800 5801 5802 5802 5802 5803 5803 5804 5804 5803 5804 5804 5804 5805 5805 5806 5806 5806 5806 5806 5806
5794 5793 5792 5790 5789 5789 5788 5787 5786 5785 5785 5785 5785 5785 5784 5783 5782 5781 5780 5781 5781 5782 5782 5782 5782 5783 5784 5786 5787 5789 5790 5791 5792 5793 5794 5794 5796 5796 5797 5797 5797 5798 5799 5799 5800 5800 5801 5801 5801 5802 5802 5803 5803 5803 5803 5804 5804 5804 5804 5804 5804 5805 5805
5791 5790 5789 5787 5785 5784 5784 5784 5784 5783 5783 5783 5783 5782 5782 5781 5780 5778 5778 5778 5779 5780 5780 5780 5780 5781 5783 5784 5785 5787 5788 5789 5790 5791 5792 5793 5794 5794 5795 5795 5795 5796 5797 5798 5798 5798 5799 5800 5800 5800 5801 5801 5802 5801 5802 5802 5802 5802 5802 5802 5803 5803 5803
5788 5787 5785 5783 5781 5781 5781 5782 5783 5782 5782 5782 5782 5781 5779 5778 5777 5776 5775 5775 5776 5777 5778 5778 5779 5780 5781 5782 5783 5785 5785 5786 5788 5789 5790 5791 5791 5792 5793 5793 5793 5794 5796 5797 5797 5797 5797 5798 5799 5799 5799 5799 5800 5800 5800 5800 5800 5800 5801 5801 5801 5801 5801
5785 5783 5781 5779 5777 5777 5778 5779 5780 5780 5780 5780 5780 5779 5777 5776 5775 5774 5774 5774 5774 5774 5776 5777 5778 5779 5780 5781 5781 5782 5783 5784 5785 5787 5788 5788 5789 5790 5791 5792 5792 5792 5794 5795 5796 5796 5796 5796 5797 5797 5798 5798 5798 5798 5798 5798 5799 5799 5799 5799 5799 5799 5799
5783 5780 5777 5775 5774 5775 5776 5776 5777 5777 5777 5777 5777 5776 5775 5774 5773 5772 5772 5772 5772 5772 5772 5774 5776 5778 5778 5778 5779 5780 5781 5781 5782 5783 5784 5785 5786 5787 5789 5790 5790 5791 5792 5793 5793 5794 5794 5795 5795 5796 5796 5796 5796 5796 5796 5797 5797 5797 5797 5797 5797 5797 5798
5780 5777 5774 5772 5771 5772 5773 5773 5773 5773 5773 5774 5774 5772 5772 5772 5771 5770 5769 5770 5770 5770 5770 5772 5774 5775 5776 5776 5776 5778 5779 5779 5779 5781 5782 5783 5784 5785 5787 5787 5788 5789 5790 5791 5791 5791 5792 5793 5794 5794 5794 5794 5794 5794 5795 5795 5795 5795 5795 5795 5796 5796 5796
5776 5774 5771 5770 5768 5768 5768 5769 5769 5769 5769 5770 5770 5769 5768 5769 5769 5768 5767 5768 5769 5769 5769 5771 5772 5773 5773 5773 5774 5776 5777 5777 5777 5778 5780 5781 5782 5783 5784 5784 5785 5787 5787 5787 5788 5789 5790 5791 5792 5792 5792 5792 5792 5792 5793 5793 5793 5793 5793 5794 5794 5794 5794
5772 5770 5767 5766 5765 5764 5763 5764 5764 5764 5765 5765 5766 5765 5765 5765 5766 5765 5764 5765 5766 5767 5768 5769 5770 5770 5770 5771 5773 5775 5776 5775 5776 5777 5778 5779 5779 5780 5781 5781 5782 5783 5784 5784 5785 5787 5788 5789 5789 5790 5790 5790 5790 5790 5791 5791 5791 5791 5791 5792 5792 5792 5792
5767 5765 5763 5762 5761 5759 5758 5758 5758 5759 5760 5760 5760 5761 5761 5762 5762 5762 5762 5763 5764 5765 5766 5766 5767 5768 5769 5770 5771 5773 5773 5774 5775 5775 5776 5776 5776 5777 5778 5779 5780 5781 5781 5781 5783 5784 5785 5786 5787 5787 5787 5787 5788 5789 5789 5790 5789 5789 5789 5789 5790 5790 5790
5763 5760 5758 5757 5756 5754 5752 5752 5753 5754 5754 5755 5755 5756 5757 5758 5759 5759 5759 5760 5761 5763 5764 5764 5765 5766 5768 5769 5769 5771 5771 5772 5772 5772 5773 5774 5774 5775 5776 5776 5778 5779 5779 5779 5780 5782 5783 5783 5784 5785 5785 5785 5786 5787 5787 5788 5787 5787 5787 5787 5787 5788 5788
5758 5756 5754 5752 5751 5749 5747 5746 5747 5747 5748 5749 5751 5752 5753 5755 5756 5756 5756 5757 5758 5760 5761 5762 5763 5764 5766 5767 5767 5768 5769 5769 5770 5770 5771 5771 5772 5773 5773 5773 5775 5776 5777 5777 5779 5780 5780 5781 5782 5782 5783 5783 5783 5784 5785 5785 5785 5784 5785 5785 5785 5786 5786
5754 5752 5750 5748 5745 5743 5742 5742 5742 5741 5742 5744 5746 5748 5750 5752 5752 5753 5753 5754 5756 5757 5758 5759 5761 5762 5764 5764 5764 5765 5766 5766 5767 5768 5768 5769 5770 5771 5772 5772 5773 5774 5775 5776 5777 5778 5778 5779 5780 5780 5781 5781 5781 5782 5783 5783 5783 5783 5783 5783 5783 5783 5784
5752 5750 5747 5744 5741 5739 5737 5737 5737 5737 5738 5740 5742 5745 5747 5749 5750 5751 5752 5752 5753 5754 5755 5757 5758 5760 5761 5762 5762 5762 5763 5764 5765 5765 5766 5767 5767 5768 5769 5770 5771 5772 5773 5774 5775 5776 5777 5777 5778 5779 5779 5779 5779 5780 5780 5780 5781 5781 5781 5781 5781 5782 5782
5750 5747 5744 5741 5738 5735 5733 5733 5733 5734 5735 5736 5739 5742 5745 5746 5748 5749 5750 5750 5751 5752 5753 5753 5755 5757 5759 5759 5760 5759 5760 5761 5762 5763 5763 5764 5765 5766 5767 5768 5769 5769 5771 5772 5773 5774 5775 5776 5776 5777 5777 5778 5778 5778 5778 5778 5779 5779 5779 5779 5779 5780 5780
5748 5745 5742 5739 5736 5733 5731 5730 5730 5731 5732 5733 5736 5739 5742 5744 5746 5747 5748 5749 5749 5749 5750 5750 5751 5754 5755 5756 5757 5757 5758 5759 5760 5760 5761 5762 5763 5764 5765 5765 5766 5767 5768 5770 5771 5772 5773 5773 5774 5775 5775 5776 5776 5776 5777 5776 5776 5777 5777 5777 5778 5778 5778
5746 5744 5741 5738 5734 5731 5730 5730 5729 5729 5729 5731 5733 5737 5739 5741 5743 5744 5745 5746 5745 5746 5746 5747 5748 5750 5751 5753 5753 5754 5754 5755 5756 5757 5758 5759 5760 5761 5762 5762 5763 5765 5766 5767 5768 5770 5770 5770 5771 5772 5773 5773 5773 5774 5774 5774 5774 5774 5775 5775 5775 5775 5775
5744 5743 5740 5737 5734 5731 5729 5729 5729 5728 5727 5729 5731 5733 5735 5737 5738 5739 5740 5741 5742 5742 5743 5743 5745 5747 5748 5749 5750 5751 5752 5751 5752 5753 5754 5756 5757 5757 5759 5760 5761 5762 5763 5765 5766 5766 5767 5768 5769 5769 5770 5770 5770 5771 5771 5771 5771 5772 5772 5773 5773 5773 5773
5742 5741 5739 5736 5733 5730 5728 5727 5726 5726 5726 5727 5728 5729 5731 5733 5733 5733 5735 5736 5738 5739 5740 5740 5741 5744 5745 5746 5747 5748 5749 5749 5749 5749 5751 5753 5754 5756 5758 5759 5759 5760 5761 5762 5763 5764 5765 5766 5767 5767 5767 5767 5767 5767 5768 5768 5768 5769 5769 5770 5770 5770 5770
5741 5739 5737 5735 5732 5730 5728 5726 5725 5724 5724 5725 5726 5727 5728 5729 5729 5730 5731 5733 5734 5735 5736 5737 5738 5741 5743 5744 5746 5746 5746 5746 5747 5747 5749 5751 5752 5754 5756 5757 5758 5759 5759 5760 5761 5762 5762 5764 5764 5764 5764 5764 5764 5764 5765 5765 5765 5766 5766 5767 5767 5767 5767
5739 5737 5735 5733 5732 5730 5727 5726 5724 5723 5723 5723 5723 5725 5725 5726 5727 5728 5729 5731 5731 5732 5732 5734 5736 5738 5739 5741 5743 5744 5743 5744 5745 5746 5747 5748 5749 5751 5752 5754 5756 5756 5756 5756 5757 5758 5760 5760 5761 5761 5761 5761 5761 5761 5762 5762 5762 5763 5764 5764 5764 5764 5764
5737 5735 5734 5732 5731 5729 5727 5725 5724 5723 5722 5722 5722 5722 5723 5724 5725 5725 5726 5727 5729 5729 5730 5731 5733 5734 5736 5737 5739 5741 5741 5742 5743 5744 5745 5745 5747 5748 5748 5750 5752 5752 5753 5754 5754 5755 5757 5758 5758 5758 5758 5758 5758 5758 5759 5760 5760 5760 5761 5761 5761 5761 5761
5736 5734 5733 5731 5730 5728 5727 5725 5723 5722 5721 5721 5720 5721 5721 5722 5723 5723 5723 5724 5727 5728 5728 5729 5730 5731 5732 5734 5736 5738 5739 5740 5740 5742 5743 5743 5745 5746 5746 5747 5749 5749 5750 5752 5752 5753 5753 5754 5755 5755 5755 5756 5756 5756 5757 5757 5757 5758 5758 5758 5758 5757 5757
5734 5733 5732 5730 5729 5727 5725 5724 5722 5721 5720 5719 5719 5719 5719 5720 5721 5721 5721 5722 5724 5725 5726 5727 5728 5728 5729 5731 5732 5734 5736 5737 5738 5739 5740 5741 5743 5744 5744 5744 5746 5747 5748 5749 5749 5750 5750 5750 5752 5752 5752 5753 5753 5754 5755 5754 5755 5756 5755 5754 5754 5754 5754
5733 5731 5730 5729 5728 5726 5724 5722 5721 5719 5719 5718 5718 5717 5717 5718 5719 5719 5720 5721 5721 5721 5722 5724 5726 5726 5727 5728 5729 5731 5733 5735 5736 5736 5738 5740 5741 5741 5742 5742 5743 5744 5745 5745 5746 5747 5747 5747 5748 5748 5749 5749 5749 5751 5752 5752 5752 5753 5753 5751 5751 5752 5751
5730 5730 5728 5727 5726 5724 5723 5721 5719 5718 5717 5716 5716 5715 5715 5715 5716 5717 5718 5718 5718 5718 5719 5721 5723 5724 5725 5726 5727 5729 5731 5733 5734 5735 5737 5739 5739 5739 5739 5740 5740 5741 5742 5742 5743 5744 5744 5744 5744 5745 5745 5746 5746 5747 5748 5748 5748 5749 5750 5749 5749 5749 5748
5728 5727 5727 5726 5724 5723 5721 5720 5718 5717 5716 5715 5714 5714 5713 5713 5713 5714 5715 5716 5716 5716 5717 5719 5719 5721 5722 5724 5725 5727 5729 5731 5733 5734 5735 5737 5737 5736 5736 5737 5737 5738 5738 5739 5739 5740 5740 5740 5740 5741 5741 5742 5743 5743 5744 5744 5745 5745 5746 5747 5746 5745 5745
5726 5725 5725 5724 5722 5721 5720 5718 5717 5716 5715 5714 5713 5712 5711 5711 5711 5711 5712 5713 5714 5715 5715 5716 5716 5718 5719 5721 5723 5726 5728 5729 5731 5732 5733 5733 5734 5734 5734 5735 5735 5734 5735 5735 5735 5735 5735 5736 5737 5737 5737 5738 5738 5739 5739 5740 5741 5741 5742 5742 5742 5741 5741
5724 5723 5723 5722 5721 5720 5718 5717 5716 5715 5715 5714 5713 5711 5710 5709 5709 5710 5710 5710 5711 5712 5712 5713 5714 5715 5717 5719 5721 5723 5725 5727 5728 5730 5730 5730 5731 5731 5730 5732 5732 5731 5731 5731 5731 5732 5732 5733 5733 5733 5733 5733 5734 5734 5735 5736 5736 5736 5736 5736 5737 5737 5737
5722 5721 5720 5720 5719 5718 5717 5716 5715 5714 5714 5713 5712 5711 5709 5708 5708 5708 5708 5709 5709 5710 5710 5711 5712 5713 5714 5716 5718 5720 5722 5724 5725 5726 5726 5726 5727 5726 5726 5728 5729 5728 5727 5727 5728 5729 5730 5730 5730 5730 5730 5730 5730 5730 5731 5731 5731 5731 5731 5731 5731 5731 5732
5720 5719 5718 5718 5717 5717 5716 5715 5714 5713 5713 5712 5711 5710 5709 5707 5707 5707 5708 5708 5708 5709 5709 5709 5710 5711 5712 5714 5715 5716 5719 5720 5720 5721 5721 5721 5723 5723 5723 5724 5724 5723 5723 5724 5725 5725 5726 5726 5726 5725 5726 5726 5726 5726 5726 5726 5726 5726 5726 5726 5726 5727 5727
5717 5717 5716 5716 5715 5715 5714 5713 5712 5712 5711 5710 5710 5709 5709 5708 5707 5707 5707 5707 5707 5707 5707 5708 5708 5709 5710 5712 5712 5713 5715 5715 5715 5715 5715 5716 5718 5720 5720 5720 5719 5719 5719 5720 5721 5721 5722 5723 5722 5721 5721 5722 5722 5722 5722 5722 5722 5721 5721 5722 5722 5721 5721
5715 5714 5714 5713 5713 5712 5712 5711 5710 5710 5710 5709 5708 5708 5707 5707 5706 5706 5706 5706 5706 5706 5706 5706 5706 5706 5708 5709 5709 5709 5711 5712 5711 5711 5711 5712 5714 5716 5717 5716 5715 5715 5715 5715 5716 5717 5718 5719 5718 5717 5717 5718 5718 5718 5718 5718 5717 5717 5717 5717 5717 5716 5717
5712 5711 5711 5711 5710 5710 5710 5709 5708 5707 5707 5707 5706 5706 5705 5705 5705 5704 5704 5704 5705 5705 5705 5705 5705 5704 5705 5706 5706 5706 5708 5708 5708 5708 5708 5708 5709 5710 5711 5711 5711 5711 5710 5710 5712 5713 5713 5714 5714 5714 5714 5714 5714 5714 5714 5713 5713 5714 5713 5713 5712 5712 5713
5709 5709 5708 5708 5707 5707 5707 5707 5706 5705 5704 5704 5704 5704 5704 5704 5703 5702 5702 5702 5702 5702 5702 5702 5702 5702 5702 5702 5703 5703 5704 5704 5705 5706 5705 5704 5705 5705 5705 5707 5708 5707 5707 5707 5707 5708 5708 5709 5709 5709 5709 5709 5709 5710 5710 5709 5709 5709 5709 5708 5708 5708 5708
5706 5706 5705 5705 5704 5704 5704 5703 5703 5702 5702 5701 5701 5701 5701 5701 5701 5700 5700 5700 5699 5699 5699 5699 5699 5699 5699 5699 5699 5700 5701 5702 5703 5702 5701 5701 5701 5701 5701 5702 5703 5703 5703 5703 5703 5703 5704 5704 5704 5704 5704 5704 5705 5705 5706 5705 5705 5705 5704 5704 5704 5704 5704
5702 5702 5702 5702 5701 5701 5700 5700 5700 5700 5699 5698 5698 5698 5698 5699 5698 5698 5698 5698 5697 5697 5697 5697 5697 5697 5697 5697 5697 5698 5698 5699 5699 5698 5697 5697 5698 5698 5698 5698 5698 5698 5699 5699 5699 5699 5699 5699 5699 5700 5700 5700 5701 5701 5701 5701 5700 5700 5700 5699 5699 5699 5699
Wind_Speed
31 31 31 31 30 29 29 31 31 32 33 33 30 28 28 27 25 25 23 23 22 22 21 21 21 23 24 24 23 22 19 18 19 18 18 17 16 15 15 15 15 15 15 15 13 13 12 12 12 12 13 13 13 14 14 13 13 11 10 11 11 11 10
32 32 31 31 31 30 30 31 31 30 31 32 30 28 28 26 25 24 22 22 24 23 22 20 19 21 23 24 23 21 19 19 19 19 18 18 17 16 15 15 16 15 16 15 15 15 14 14 14 13 14 14 14 15 15 14 14 12 12 12 12 12 11
34 33 32 33 33 32 31 32 31 29 29 29 28 28 29 26 24 24 23 22 23 23 23 20 18 20 22 23 23 22 20 20 20 19 19 18 17 16 15 16 16 16 15 14 15 16 15 14 14 14 14 14 15 16 15 15 14 13 13 13 13 13 12
34 34 34 34 35 34 33 32 31 29 29 29 27 27 29 28 25 24 24 22 21 21 22 21 20 21 22 23 23 22 20 19 18 18 18 18 17 17 16 16 17 17 15 14 16 17 16 15 14 14 15 15 15 16 16 15 14 13 13 13 13 13 13
34 35 36 37 37 36 34 33 31 31 30 28 26 26 28 29 27 25 25 23 21 20 22 22 21 22 22 22 22 21 19 18 18 18 18 18 18 18 17 16 17 17 16 15 16 17 16 15 15 15 15 15 15 15 16 15 14 13 13 13 14 14 14
33 35 37 38 38 37 34 33 32 31 30 28 26 27 28 28 27 27 26 24 22 21 22 23 23 24 23 22 21 20 19 19 19 19 19 18 18 18 17 17 18 17 17 16 16 16 16 15 15 15 15 15 15 15 15 15 14 14 13 13 14 14 14
34 35 37 39 39 38 35 34 34 33 31 28 26 26 28 28 27 28 27 24 22 23 22 22 22 24 24 21 21 20 20 20 19 19 19 19 19 19 19 19 19 18 17 16 16 16 16 15 15 15 16 16 15 15 15 15 14 14 13 13 13 14 14
36 37 39 40 41 40 38 37 36 34 32 29 25 24 26 27 27 29 29 26 24 23 23 20 20 23 22 20 20 21 21 21 20 20 20 20 20 20 20 21 21 18 16 17 17 16 16 16 15 15 16 16 15 15 15 15 15 14 13 13 13 13 14
38 40 42 43 43 43 41 39 37 35 32 29 25 24 25 25 26 28 29 29 26 23 23 21 20 22 23 20 20 21 23 24 23 21 21 22 22 22 21 21 20 17 17 18 18 17 17 16 15 15 16 16 16 16 16 16 15 15 14 13 13 14 14
42 43 44 44 43 41 40 38 36 34 31 29 26 23 23 24 25 27 29 29 27 24 23 23 22 22 22 21 20 22 24 24 23 23 22 22 23 22 21 21 20 18 17 18 18 18 17 16 15 15 16 17 17 17 16 15 16 16 15 14 14 15 15
43 43 42 41 39 37 36 35 33 32 31 29 27 23 22 23 24 27 28 28 28 26 25 24 24 22 21 21 23 24 23 22 22 23 22 21 21 21 20 21 20 18 18 19 19 18 18 16 15 16 16 17 18 18 17 16 16 16 15 15 15 16 15
39 38 37 37 37 36 35 33 31 31 29 27 25 22 22 22 24 26 28 28 27 27 26 26 25 24 22 21 23 24 23 22 21 21 21 22 22 21 20 20 19 18 19 20 19 19 18 16 16 16 16 18 19 18 17 16 16 17 16 15 15 16 16
33 34 35 37 38 36 35 34 32 30 27 24 24 21 20 22 24 26 28 28 26 26 26 26 26 26 24 23 24 24 24 22 20 21 22 23 22 20 19 19 20 19 20 20 20 19 17 16 16 16 17 17 18 18 17 17 17 18 17 16 16 16 16
30 32 34 37 38 34 31 31 28 26 24 21 19 18 18 21 23 25 27 28 27 26 26 26 26 26 25 25 26 25 25 23 22 23 23 22 21 20 19 20 21 20 19 20 20 19 17 16 16 17 17 17 18 19 18 18 18 18 18 17 17 17 17
29 31 33 35 35 30 26 24 22 22 24 21 18 16 18 20 22 24 26 27 27 27 27 27 27 27 27 27 27 27 27 25 24 24 24 23 21 20 21 22 21 20 20 21 21 19 18 17 17 17 17 18 19 20 19 19 19 18 18 18 18 19 19
28 29 31 32 30 26 22 19 17 19 21 21 19 17 18 20 22 24 25 26 27 28 28 28 27 26 26 27 28 28 27 26 26 25 24 23 21 20 23 22 21 20 20 21 21 20 19 18 18 18 17 18 18 19 19 19 19 19 19 20 20 21 22
27 27 28 27 23 22 19 16 16 17 18 19 20 18 19 21 23 24 25 27 28 29 30 29 27 25 25 26 26 25 25 25 26 25 24 23 21 21 23 21 20 20 20 20 20 19 19 19 18 17 17 17 18 19 20 20 20 20 21 22 22 23 23
25 25 25 24 20 18 17 16 16 16 17 19 21 21 22 23 25 26 27 27 29 29 28 26 25 24 23 23 23 24 24 25 25 25 25 23 22 22 22 21 19 19 19 19 19 19 19 19 19 18 17 18 19 20 20 21 22 23 23 23 23 23 24
24 23 23 23 21 16 12 12 13 13 15 18 20 22 24 25 27 29 28 27 28 28 27 25 23 23 23 23 23 23 24 25 25 26 25 24 23 23 22 20 18 18 19 19 19 20 20 19 20 20 19 20 21 21 21 22 23 24 24 24 24 24 24
22 22 21 22 21 18 13 10 9 9 11 15 18 20 23 25 26 28 27 25 25 26 26 26 25 24 25 25 23 22 23 24 25 26 26 25 24 24 23 20 17 18 20 20 20 21 21 20 20 19 20 22 22 22 22 22 24 25 25 25 25 25 25
20 20 20 21 21 19 15 12 10 10 11 14 16 19 23 24 25 26 26 25 24 25 25 26 25 23 23 24 24 24 25 24 25 25 25 25 23 22 21 18 17 19 21 21 21 22 21 19 18 19 20 20 19 20 22 22 24 25 25 25 26 26 26
19 19 19 20 20 19 17 15 13 12 13 15 16 17 20 23 24 25 26 26 25 24 24 24 24 24 23 23 23 24 24 24 25 25 24 23 21 19 19 19 19 21 21 20 21 21 20 20 19 18 18 17 17 19 20 21 22 22 23 25 26 26 26
19 18 18 18 19 19 18 16 15 14 14 14 16 18 20 23 24 26 27 26 24 23 23 22 22 24 24 23 22 23 23 23 24 23 22 21 19 19 22 23 22 23 22 21 21 21 21 21 20 20 20 21 21 21 19 19 21 22 24 26 25 25 25
19 19 18 18 18 19 18 17 16 16 15 15 16 19 21 23 24 26 27 26 24 23 21 20 21 23 23 22 22 22 21 19 20 21 20 19 20 22 25 24 23 23 22 22 23 22 22 23 23 23 24 26 27 27 25 24 25 24 24 25 25 25 25
19 19 19 18 18 18 19 19 18 17 17 16 16 18 21 22 23 25 26 26 26 25 23 21 21 23 22 22 22 22 20 18 19 20 19 19 23 25 25 25 25 24 23 23 23 23 24 25 25 26 27 28 29 30 29 29 29 27 25 23 22 23 23
19 19 19 18 19 19 20 20 20 19 18 16 14 16 19 20 21 23 25 26 27 27 25 23 23 23 23 22 22 23 23 21 20 20 21 23 26 26 26 25 25 24 24 24 25 25 25 26 26 27 28 29 30 31 31 30 30 28 27 24 22 22 23
19 19 19 18 18 19 20 22 22 21 19 16 12 14 17 18 19 21 22 24 25 26 25 24 24 24 23 22 22 23 24 24 24 23 24 25 26 26 26 26 25 25 26 25 26 26 26 26 27 28 29 30 31 32 31 30 29 28 27 27 26 26 27
19 19 18 18 18 19 20 22 23 22 20 18 15 13 14 15 16 17 19 21 22 24 25 25 25 24 23 22 22 23 25 26 26 26 26 26 25 25 25 24 24 25 25 26 27 28 28 28 27 28 30 31 30 30 29 28 28 28 28 28 29 29 29
19 19 19 18 19 19 20 21 22 22 21 20 19 16 13 14 14 14 16 19 21 22 24 23 22 22 23 22 22 23 24 25 26 26 26 27 26 25 25 25 25 26 27 29 31 30 30 29 29 29 29 29 28 28 28 28 28 29 30 30 30 30 30
19 20 19 19 19 19 20 21 21 21 21 20 20 19 16 14 14 14 15 16 18 20 21 21 21 23 24 24 24 24 23 23 25 27 28 29 28 28 29 28 26 27 30 32 32 30 30 30 29 28 28 28 28 28 28 29 30 31 31 31 31 31 30
19 19 19 19 19 19 20 21 21 21 21 20 20 20 18 15 14 15 16 15 15 18 21 23 24 25 25 25 25 25 24 26 29 31 31 32 31 29 29 30 29 30 32 32 31 30 30 29 27 27 28 29 29 29 29 30 31 32 32 32 32 31 30
20 19 19 19 20 20 20 21 21 21 21 21 20 19 19 17 15 14 16 17 18 20 23 25 26 26 25 25 26 27 27 29 30 29 29 29 28 26 27 29 31 32 32 31 30 30 30 27 25 27 29 29 29 29 30 31 32 33 33 33 33 33 32
21 21 21 21 21 21 21 21 22 21 20 21 20 19 19 18 16 15 15 16 19 22 24 26 28 29 29 28 30 30 28 27 27 27 28 28 27 27 28 29 30 30 30 30 30 30 29 28 27 28 29 30 31 31 32 32 33 33 33 34 34 35 34
23 24 24 23 23 23 22 22 22 22 20 19 19 19 18 18 17 16 16 16 17 19 21 22 25 31 33 33 34 35 33 32 31 29 27 26 27 29 30 29 28 28 29 30 30 29 30 31 32 32 32 33 34 34 34 34 34 35 35 35 37 37 36
26 26 26 25 25 24 23 22 22 23 22 20 19 18 18 18 18 18 17 16 16 17 17 16 17 21 26 31 37 38 35 33 31 29 26 24 26 28 29 28 28 30 32 33 32 31 32 33 34 34 35 35 35 35 35 35 36 36 37 38 38 38 37
27 26 26 26 25 24 24 22 22 22 23 22 20 19 18 18 18 18 18 17 17 17 16 16 16 17 20 26 31 32 29 28 28 29 30 30 31 32 31 31 32 34 33 33 32 32 32 32 32 32 33 34 34 34 34 35 36 36 37 38 38 37 37
26 25 24 24 25 24 23 22 21 21 22 23 23 21 19 18 19 20 19 18 18 17 16 16 16 17 18 21 23 24 24 25 26 26 28 31 33 34 35 35 35 34 31 31 32 33 33 34 33 33 34 35 35 36 36 37 37 37 38 39 39 38 39
Wind_Direction
300 300 299 297 295 293 291 289 285 282 280 280 277 277 283 289 290 281 270 263 253 241 238 239 236 229 222 220 220 219 220 222 225 229 230 234 239 242 242 243 248 249 247 250 251 248 250 256 260 264 269 274 276 278 278 278 277 268 270 282 278 273 276
298 298 297 295 293 292 288 286 285 284 282 282 279 274 275 282 285 279 269 259 252 245 240 239 235 227 217 214 217 218 220 225 229 231 231 232 236 237 239 242 246 247 246 249 251 252 255 259 262 267 272 277 278 276 276 275 272 266 270 278 277 276 276
297 297 295 294 292 291 289 287 289 290 287 285 281 275 272 275 278 276 268 256 250 246 239 235 230 223 215 214 217 219 224 229 232 233 232 232 235 236 238 242 245 246 246 248 251 254 258 262 265 270 274 277 278 276 276 275 271 269 273 276 277 277 277
297 297 295 293 292 291 290 290 291 293 293 291 285 276 270 270 269 271 269 258 250 244 236 234 230 223 218 218 221 224 227 231 234 234 232 234 237 236 237 241 243 244 243 244 248 251 255 261 265 269 272 273 275 276 276 275 273 274 276 278 279 278 277
295 294 292 291 290 291 291 292 293 293 293 293 289 278 270 269 267 267 268 262 255 245 236 235 233 227 223 221 225 228 229 233 236 235 233 236 238 235 237 242 243 242 241 245 249 248 252 259 260 262 265 267 270 274 275 275 275 278 279 278 278 276 274
291 290 289 289 289 291 292 293 293 292 291 291 289 280 272 271 269 267 265 262 259 250 237 233 233 231 227 224 227 228 229 235 237 235 233 233 234 236 240 245 243 240 242 247 249 248 251 256 255 258 263 264 267 270 271 272 274 276 275 274 274 273 273
290 289 289 289 291 292 293 292 291 290 288 287 286 280 273 271 271 268 264 261 261 257 245 234 232 232 231 229 229 230 233 237 237 235 232 230 233 237 243 247 242 238 244 251 252 251 253 255 254 259 263 264 266 268 268 270 271 271 271 271 272 272 272
291 290 290 290 290 291 291 289 287 286 284 283 281 277 271 269 271 270 265 263 263 262 252 239 236 237 236 233 232 233 236 237 236 236 233 233 237 238 242 244 236 234 249 255 253 252 253 256 257 260 264 266 267 267 268 269 268 268 268 270 272 272 271
291 290 290 290 290 289 287 283 281 280 279 278 275 270 267 268 270 268 267 266 265 262 255 248 246 244 239 238 236 232 233 233 234 236 235 239 242 240 241 239 232 238 252 253 252 253 252 254 257 260 263 263 263 264 265 266 267 267 266 268 271 272 272
292 291 291 291 290 288 285 280 275 273 273 271 267 265 264 266 267 265 265 266 265 262 259 257 256 251 243 242 241 237 234 233 232 235 237 240 242 241 238 232 232 244 253 253 255 255 252 252 255 258 261 261 261 261 261 263 264 263 265 268 269 269 271
294 293 292 292 291 289 285 279 271 266 265 263 261 259 259 264 266 263 263 264 264 262 261 261 260 255 248 244 243 241 239 236 235 237 237 235 238 240 234 229 233 245 254 256 257 254 251 252 255 257 258 260 260 259 259 260 259 259 264 267 267 268 270
296 296 296 296 295 293 287 281 270 260 256 256 255 253 255 262 264 261 260 261 263 263 263 263 261 258 253 247 244 244 243 240 239 239 238 236 238 240 237 236 240 248 256 258 255 250 250 253 255 256 256 256 258 257 257 257 258 262 266 264 266 270 271
301 302 303 301 299 296 289 283 273 258 250 249 249 248 252 260 262 259 259 260 263 265 266 264 263 261 257 252 249 247 246 245 246 245 243 240 239 242 242 244 249 251 254 256 253 249 250 254 254 255 256 255 257 258 256 255 258 263 266 266 268 271 271
307 306 306 304 302 298 288 279 270 256 247 243 241 242 251 260 260 257 257 259 262 265 265 263 262 261 259 256 254 250 249 251 251 249 247 244 243 244 244 246 251 251 252 255 253 251 253 255 252 253 253 252 255 258 257 256 257 260 263 266 269 272 273
308 308 309 306 303 299 288 278 267 253 246 240 232 235 249 257 256 254 257 259 260 263 264 260 258 258 257 257 254 252 252 252 251 247 245 245 245 244 243 246 249 250 252 253 252 253 258 257 254 253 251 249 252 255 255 255 256 258 262 265 269 272 274
309 311 313 309 300 293 288 279 262 247 242 238 229 230 244 251 251 252 257 258 258 260 261 258 257 257 257 257 255 252 250 247 246 244 244 245 245 244 245 247 247 248 250 251 250 255 259 258 255 253 251 251 251 253 255 257 258 259 263 267 270 273 273
310 312 315 314 302 287 282 277 261 248 244 240 231 228 236 243 244 247 252 254 255 258 258 256 256 257 257 256 253 250 246 243 243 242 242 245 247 245 243 242 243 246 248 250 253 256 259 259 257 253 253 253 254 255 257 259 260 263 266 269 271 272 273
309 312 317 320 315 296 281 277 272 261 251 243 233 226 230 237 239 240 243 246 250 254 256 255 254 255 256 254 249 245 242 242 242 242 240 241 243 243 240 237 240 244 248 252 256 258 258 259 258 256 256 257 258 258 257 259 263 266 269 271 272 273 274
308 312 318 323 327 321 297 279 274 262 247 239 232 227 229 233 235 234 234 239 244 247 249 250 250 250 249 247 245 242 240 241 241 241 240 242 244 244 240 237 239 244 249 254 256 257 256 255 256 257 256 255 256 257 258 261 265 268 271 272 273 274 274
308 314 320 323 327 329 319 293 275 262 243 235 234 232 231 231 232 232 234 239 242 243 244 246 248 248 245 242 240 240 239 238 239 240 241 243 244 240 234 235 242 249 253 253 251 252 253 253 254 255 256 257 257 255 256 260 264 267 270 271 271 273 273
309 314 319 322 324 325 321 305 285 275 257 243 239 236 233 232 233 237 240 241 242 244 245 245 247 248 246 242 238 237 237 237 238 239 239 240 238 231 227 234 245 249 248 247 246 249 249 246 246 249 254 257 257 255 256 261 265 267 268 269 271 272 273
308 312 316 318 320 321 318 309 297 287 273 259 252 242 233 232 236 241 243 242 243 246 248 248 248 247 247 244 239 236 236 237 237 236 235 232 226 222 231 243 249 247 245 246 249 251 249 245 246 249 249 245 246 255 263 265 265 267 270 273 273 273 273
305 308 311 313 316 317 316 310 302 293 282 271 262 253 243 239 241 244 244 243 244 246 247 248 248 247 248 246 242 239 237 237 235 230 227 226 223 229 243 250 250 248 247 248 250 252 251 251 251 253 253 251 252 260 269 269 268 271 276 275 273 274 275
300 302 304 306 310 313 313 311 306 298 289 279 268 261 255 249 247 246 244 243 246 247 246 246 247 250 250 246 243 240 233 229 228 224 223 228 235 242 249 251 250 248 247 248 250 253 255 256 257 257 260 261 262 264 267 268 270 273 275 272 270 272 274
294 297 299 302 305 308 310 310 308 303 295 285 272 266 264 257 251 250 246 244 249 252 252 249 248 249 246 241 239 233 224 223 227 225 227 238 246 248 250 251 249 248 247 249 252 254 256 259 261 262 263 265 267 268 267 267 267 267 267 267 269 270 272
290 293 295 299 303 305 308 309 308 307 305 297 277 269 271 266 256 252 248 246 250 254 254 251 251 249 242 236 234 230 225 226 226 225 233 244 248 249 250 248 248 248 250 252 253 255 257 259 261 263 265 266 268 269 268 266 265 262 260 261 266 270 272
290 291 293 297 300 303 306 308 309 309 312 314 299 279 276 272 260 252 248 248 250 253 253 253 253 249 241 236 234 230 227 228 229 233 242 248 249 248 246 245 248 251 253 255 257 259 260 262 264 266 267 267 267 266 265 264 262 259 257 258 262 266 268
289 290 292 295 298 301 304 307 311 312 313 319 319 302 283 274 266 256 250 248 249 251 251 251 250 246 240 237 236 233 231 232 236 241 246 247 248 249 248 248 251 253 256 260 263 263 264 265 267 268 267 267 265 263 262 261 260 260 260 260 263 265 267
287 289 292 294 297 301 305 307 311 315 315 318 324 320 298 277 270 263 255 251 251 251 250 248 245 240 239 239 238 236 237 240 242 243 244 244 243 243 246 248 249 251 257 260 261 262 264 265 266 266 265 264 263 262 262 262 263 264 265 266 268 270 271
283 287 290 293 295 299 304 306 310 314 315 316 321 324 316 293 275 268 263 257 252 247 244 242 240 237 239 244 245 243 243 245 245 243 242 241 237 237 241 245 247 251 255 256 257 260 263 263 263 263 262 263 264 263 263 264 266 268 270 271 272 273 273
281 284 288 291 295 298 301 305 309 312 314 315 317 321 323 316 297 280 269 260 248 239 238 242 244 242 243 247 248 246 244 244 244 244 242 238 237 241 247 250 251 253 254 256 258 260 261 261 261 262 261 261 262 262 262 265 268 270 271 271 272 273 275
281 284 287 290 294 298 300 303 307 309 312 314 315 316 318 320 317 299 278 260 243 235 234 238 242 246 248 250 250 249 248 247 244 239 236 237 240 247 252 254 255 256 256 256 257 259 260 258 256 259 259 258 258 260 264 267 269 270 272 274 276 277 278
281 284 286 289 293 296 298 300 303 306 308 310 312 313 312 313 315 312 296 273 251 240 238 239 241 244 247 250 252 253 249 241 232 229 233 242 249 252 252 253 254 254 253 253 254 257 259 257 253 253 255 257 259 261 265 267 268 270 274 277 279 280 281
281 283 285 287 289 292 295 297 298 300 303 304 305 307 308 308 308 307 304 294 277 264 260 258 255 254 252 251 253 255 248 235 228 233 243 251 254 252 251 252 250 247 250 255 258 259 259 258 257 254 254 258 262 265 266 267 268 271 273 275 276 278 279
282 283 284 286 287 288 290 292 294 296 298 299 299 299 300 302 302 300 298 297 295 291 291 291 285 278 273 266 260 256 248 239 239 246 248 247 247 248 250 251 249 249 254 258 259 259 259 259 259 257 256 258 262 265 267 268 268 268 269 270 273 274 275
280 281 282 284 285 286 287 289 291 293 295 296 297 297 296 295 295 295 295 294 294 295 296 298 298 296 294 284 270 259 253 255 262 264 259 252 246 243 244 249 251 254 257 258 257 259 261 260 258 257 259 261 262 263 264 264 265 266 268 269 271 272 273
278 279 280 281 283 284 285 287 289 291 293 295 297 297 297 295 293 292 292 291 290 290 289 288 288 290 292 288 279 271 269 272 276 277 274 267 256 245 240 243 249 253 255 257 260 263 265 263 261 260 262 264 265 266 265 264 265 267 270 272 272 271 273